When you browse on this site, cookies collect data to enhance your experience and personalize the content and advertising you see.
Visit our Privacy Policy to learn more. By continuing to use the site, you agree to this use of cookies and data.
  • In Switzerland
  • List of Countries
  • For 7 days
  • Water Temperature
  • Weather Map
  • Weather Widgets
  • user-avatar
    Login

    Hourly Weather Neuquén

    Today, 19 November, Tuesday

    Time Temperature Precipitation Wind Pressure Humidity
    00:00 +20°C° 0 mm 3 mps 733 mmHg 20%
    01:00 +20°C° 0 mm 2 mps 733 mmHg 20%
    02:00 +19°C° 0 mm 2 mps 732 mmHg 21%
    03:00 +19°C° 0 mm 2 mps 732 mmHg 22%
    04:00 +18°C° 0 mm 2 mps 732 mmHg 23%
    05:00 +21°C° 0 mm 4 mps 732 mmHg 23%
    06:00 +24°C° 0 mm 6 mps 732 mmHg 22%
    07:00 +28°C° 0 mm 6 mps 732 mmHg 21%
    08:00 +31°C° 0 mm 8 mps 731 mmHg 20%
    09:00 +33°C° 0 mm 10 mps 731 mmHg 18%
    10:00 +36°C° 0 mm 11 mps 730 mmHg 17%
    11:00 +37°C° 0 mm 11 mps 729 mmHg 14%
    12:00 +38°C° 0 mm 10 mps 728 mmHg 12%
    13:00 +39°C° 0 mm 10 mps 727 mmHg 9%
    14:00 +39°C° 0 mm 10 mps 727 mmHg 8%
    15:00 +39°C° 0 mm 11 mps 727 mmHg 8%
    16:00 +39°C° 0 mm 12 mps 726 mmHg 7%
    17:00 +36°C° 0 mm 12 mps 727 mmHg 10%
    18:00 +33°C° 0 mm 11 mps 727 mmHg 13%
    19:00 +29°C° 0 mm 10 mps 728 mmHg 16%
    20:00 +27°C° 0 mm 10 mps 729 mmHg 17%
    21:00 +26°C° 0 mm 11 mps 729 mmHg 19%
    22:00 +23°C° 0 mm 11 mps 730 mmHg 20%
    23:00 +22°C° 0 mm 9 mps 730 mmHg 27%

    Tomorrow, 20 November, Wednesday

    Time Temperature Precipitation Wind Pressure Humidity
    00:00 +21°C° 0 mm 8 mps 730 mmHg 33%
    01:00 +20°C° 0 mm 7 mps 730 mmHg 40%
    02:00 +18°C° 0 mm 7 mps 730 mmHg 42%
    03:00 +18°C° 0 mm 7 mps 731 mmHg 45%
    04:00 +17°C° 0 mm 6 mps 731 mmHg 47%
    05:00 +20°C° 0 mm 6 mps 732 mmHg 42%
    06:00 +21°C° 0 mm 5 mps 733 mmHg 38%
    07:00 +23°C° 0 mm 5 mps 733 mmHg 33%
    08:00 +25°C° 0 mm 4 mps 733 mmHg 30%
    09:00 +26°C° 0 mm 3 mps 733 mmHg 27%
    10:00 +27°C° 0 mm 1 mps 733 mmHg 23%
    11:00 +29°C° 0 mm 2 mps 732 mmHg 21%
    12:00 +30°C° 0 mm 3 mps 732 mmHg 20%
    13:00 +31°C° 0 mm 3 mps 731 mmHg 18%
    14:00 +33°C° 0 mm 4 mps 730 mmHg 17%
    15:00 +33°C° 0 mm 4 mps 730 mmHg 16%
    16:00 +34°C° 0 mm 5 mps 729 mmHg 15%
    17:00 +33°C° 0 mm 5 mps 729 mmHg 16%
    18:00 +30°C° 0 mm 5 mps 730 mmHg 18%
    19:00 +29°C° 0 mm 5 mps 730 mmHg 19%
    20:00 +27°C° 0 mm 6 mps 730 mmHg 18%
    21:00 +26°C° 0 mm 7 mps 731 mmHg 16%
    22:00 +23°C° 0 mm 8 mps 731 mmHg 14%
    23:00 +22°C° 0 mm 7 mps 731 mmHg 16%

    Day after tomorrow, 21 November, Thursday

    Time Temperature Precipitation Wind Pressure Humidity
    00:00 +21°C° 0 mm 6 mps 731 mmHg 18%
    01:00 +20°C° 0 mm 6 mps 732 mmHg 20%
    02:00 +19°C° 0 mm 5 mps 732 mmHg 21%
    03:00 +18°C° 0 mm 4 mps 732 mmHg 22%
    04:00 +17°C° 0 mm 3 mps 733 mmHg 23%
    05:00 +19°C° 0 mm 4 mps 733 mmHg 20%
    06:00 +20°C° 0 mm 5 mps 734 mmHg 18%
    07:00 +22°C° 0 mm 6 mps 735 mmHg 15%
    08:00 +23°C° 0 mm 5 mps 734 mmHg 13%
    09:00 +25°C° 0 mm 5 mps 734 mmHg 12%
    10:00 +26°C° 0 mm 4 mps 734 mmHg 10%
    11:00 +27°C° 0 mm 4 mps 734 mmHg 9%
    12:00 +28°C° 0 mm 4 mps 734 mmHg 9%
    13:00 +29°C° 0 mm 3 mps 734 mmHg 8%
    14:00 +29°C° 0 mm 3 mps 733 mmHg 8%
    15:00 +29°C° 0 mm 3 mps 733 mmHg 8%
    16:00 +30°C° 0 mm 3 mps 733 mmHg 8%
    17:00 +28°C° 0 mm 4 mps 733 mmHg 9%
    18:00 +27°C° 0 mm 5 mps 733 mmHg 10%
    19:00 +25°C° 0 mm 5 mps 733 mmHg 11%
    20:00 +23°C° 0 mm 6 mps 734 mmHg 13%
    21:00 +22°C° 0 mm 6 mps 734 mmHg 16%
    22:00 +20°C° 0 mm 6 mps 735 mmHg 18%
    23:00 +19°C° 0 mm 6 mps 735 mmHg 21%

    22 November, Friday

    Time Temperature Precipitation Wind Pressure Humidity
    00:00 +17°C° 0 mm 6 mps 735 mmHg 24%
    01:00 +16°C° 0 mm 6 mps 735 mmHg 26%
    02:00 +15°C° 0 mm 5 mps 735 mmHg 31%
    03:00 +14°C° 0 mm 4 mps 735 mmHg 35%
    04:00 +14°C° 0 mm 3 mps 735 mmHg 39%
    05:00 +15°C° 0 mm 4 mps 736 mmHg 33%
    06:00 +17°C° 0 mm 5 mps 736 mmHg 26%
    07:00 +20°C° 0 mm 6 mps 736 mmHg 20%
    08:00 +22°C° 0 mm 7 mps 736 mmHg 17%
    09:00 +24°C° 0 mm 8 mps 736 mmHg 14%
    10:00 +27°C° 0 mm 8 mps 736 mmHg 11%
    11:00 +28°C° 0 mm 9 mps 735 mmHg 10%
    12:00 +31°C° 0 mm 9 mps 734 mmHg 9%
    13:00 +32°C° 0 mm 9 mps 734 mmHg 9%
    14:00 +32°C° 0 mm 9 mps 733 mmHg 9%
    15:00 +32°C° 0 mm 8 mps 732 mmHg 9%
    16:00 +32°C° 0 mm 8 mps 732 mmHg 10%
    17:00 +30°C° 0 mm 7 mps 732 mmHg 11%
    18:00 +29°C° 0 mm 6 mps 731 mmHg 12%
    19:00 +27°C° 0 mm 5 mps 731 mmHg 13%
    20:00 +27°C° 0 mm 5 mps 731 mmHg 13%
    21:00 +27°C° 0 mm 6 mps 731 mmHg 13%
    22:00 +26°C° 0 mm 6 mps 731 mmHg 13%
    23:00 +26°C° 0.1 mm 6 mps 730 mmHg 18%

    23 November, Saturday

    Time Temperature Precipitation Wind Pressure Humidity
    00:00 +24°C° 0.1 mm 6 mps 730 mmHg 24%
    01:00 +23°C° 0.1 mm 7 mps 729 mmHg 29%
    02:00 +23°C° 0.1 mm 7 mps 729 mmHg 44%
    03:00 +23°C° 0.1 mm 7 mps 729 mmHg 58%
    04:00 +23°C° 0.1 mm 7 mps 728 mmHg 72%
    05:00 +24°C° 0.1 mm 8 mps 728 mmHg 70%
    06:00 +26°C° 0.1 mm 9 mps 728 mmHg 67%
    07:00 +27°C° 0.1 mm 11 mps 728 mmHg 64%
    08:00 +28°C° 0.3 mm 10 mps 728 mmHg 61%
    09:00 +29°C° 0.3 mm 10 mps 728 mmHg 57%
    10:00 +31°C° 0.3 mm 10 mps 727 mmHg 53%
    11:00 +32°C° 1 mm 9 mps 727 mmHg 48%
    12:00 +34°C° 1 mm 8 mps 726 mmHg 42%
    13:00 +35°C° 1 mm 7 mps 726 mmHg 36%
    14:00 +35°C° 0 mm 8 mps 725 mmHg 28%
    15:00 +37°C° 0 mm 10 mps 725 mmHg 19%
    16:00 +37°C° 0 mm 12 mps 725 mmHg 10%
    17:00 +34°C° 0 mm 11 mps 725 mmHg 13%
    18:00 +31°C° 0 mm 10 mps 726 mmHg 16%
    19:00 +28°C° 0 mm 10 mps 727 mmHg 19%
    20:00 +26°C° 0 mm 9 mps 727 mmHg 22%
    21:00 +23°C° 0 mm 8 mps 727 mmHg 26%
    22:00 +22°C° 0 mm 7 mps 727 mmHg 30%
    23:00 +21°C° 0 mm 7 mps 727 mmHg 32%

    24 November, Sunday

    Time Temperature Precipitation Wind Pressure Humidity
    00:00 +20°C° 0 mm 6 mps 727 mmHg 34%
    01:00 +19°C° 0 mm 6 mps 727 mmHg 36%
    02:00 +17°C° 0 mm 6 mps 727 mmHg 37%
    03:00 +17°C° 0 mm 6 mps 727 mmHg 39%
    04:00 +16°C° 0 mm 6 mps 727 mmHg 40%
    05:00 +17°C° 0 mm 7 mps 727 mmHg 38%
    06:00 +20°C° 0 mm 8 mps 728 mmHg 35%
    07:00 +21°C° 0 mm 10 mps 728 mmHg 33%
    08:00 +21°C° 0 mm 10 mps 729 mmHg 33%
    09:00 +21°C° 0 mm 11 mps 729 mmHg 33%
    10:00 +21°C° 0 mm 11 mps 729 mmHg 33%
    11:00 +22°C° 0 mm 12 mps 729 mmHg 26%
    12:00 +24°C° 0 mm 13 mps 729 mmHg 19%
    13:00 +27°C° 0 mm 14 mps 729 mmHg 11%
    14:00 +26°C° 0 mm 14 mps 729 mmHg 12%
    15:00 +24°C° 0 mm 14 mps 729 mmHg 12%
    16:00 +24°C° 0 mm 14 mps 729 mmHg 12%
    17:00 +22°C° 0 mm 13 mps 730 mmHg 15%
    18:00 +19°C° 0 mm 12 mps 730 mmHg 18%
    19:00 +18°C° 0 mm 10 mps 731 mmHg 20%
    20:00 +16°C° 0 mm 10 mps 732 mmHg 25%
    21:00 +14°C° 0 mm 10 mps 732 mmHg 30%
    22:00 +13°C° 0 mm 9 mps 733 mmHg 35%
    23:00 +12°C° 0 mm 9 mps 733 mmHg 35%
    Show more